Location: Newark
(37.8333°N, 119.5000°W)
Time: 05:31:21
(UTC+00:00)

Vanguard 2 - Pass Details

Date: 26 August 2019
Orbit: 554 x 2937 km, 32.9° (Epoch: 17 September)

Event Time Altitude Azimuth Distance (km) Brightness Sun altitude
Rises 02:50:58 0° 269° (W) 5,121 13.6 -3.4°
Reaches altitude 10° 02:55:18 10° 254° (WSW) 4,518 12.5 -4.2°
Maximum altitude 03:03:47 20° 213° (SSW) 4,341 11.5 -5.8°
Drops below altitude 10° 03:14:12 10° 174° (S) 5,623 11.7 -7.7°
Sets 03:20:45 0° 161° (SSE) 6,767 12.0 -9.0°
